This demonstration page uses our WeatherBlox Daily Observations layout. Learn more.

36.19886, -115.1175

Hourly Observations for January 8, 2020

Temp ( °F °C ) Dew Point ( °F °C ) Humidity (%) Winds ( mph kmh ) Pressure ( in mb ) Visibility ( mi km ) Precip ( " mm )
12:53 am 00:53 Clear 44 6.7 28 -2.2 53 53 NNW 5 7 30.01 1016 10 16.0934 0 0
1:53 am 01:53 Clear 43 6.1 28 -2.2 56 56 NW 3 6 29.99 1016 10 16.0934 0 0
2:53 am 02:53 Clear 44 6.7 27 -2.8 51 51 Calm 29.95 1014 10 16.0934 0 0
3:53 am 03:53 Clear 41 5 27 -2.8 57 57 Calm 29.93 1014 10 16.0934 0 0
4:53 am 04:53 Clear 41 5 27 -2.8 57 57 N 3 6 29.92 1013 10 16.0934 0 0
5:53 am 05:53 Clear 40 4.4 27 -2.8 60 60 NNW 9 15 29.93 1013 10 16.0934 0 0
6:53 am 06:53 Sunny 41 5 24 -4.4 51 51 NW 8 13 29.92 1013 10 16.0934 0 0
7:53 am 07:53 Sunny 46 7.8 24 -4.4 42 42 N 8 13 29.93 1014 10 16.0934 0 0
8:53 am 08:53 Sunny 49 9.4 23 -5 36 36 NNW 14 22 29.96 1015 10 16.0934 0 0
9:53 am 09:53 Sunny 53 11.7 23 -5 31 31 N 14 22 29.98 1015 10 16.0934 0 0
10:53 am 10:53 Sunny 59 15 19 -7.2 21 21 NNW 20 31 29.95 1014 10 16.0934 0 0
11:53 am 11:53 Sunny 61 16.1 17 -8.3 18 18 N 14 22 29.93 1014 10 16.0934 0 0
12:53 pm 12:53 Sunny 62 16.7 14 -10 15 15 NNW 13 20 29.91 1013 10 16.0934 0 0
1:53 pm 13:53 Sunny 62 16.7 13 -10.6 14 14 NNW 14 22 29.88 1012 10 16.0934 0 0
2:53 pm 14:53 Sunny 62 16.7 12 -11.1 14 14 NNW 12 19 29.87 1012 10 16.0934 0 0
3:53 pm 15:53 Sunny 61 16.1 12 -11.1 14 14 NNW 14 22 29.89 1012 10 16.0934 0 0
4:53 pm 16:53 Clear 59 15 13 -10.6 16 16 NNW 7 11 29.91 1013 10 16.0934 0 0
5:53 pm 17:53 Clear 56 13.3 16 -8.9 21 21 NW 5 7 29.93 1014 10 16.0934 0 0
6:53 pm 18:53 Clear 54 12.2 18 -7.8 24 24 Calm 29.93 1014 10 16.0934 0 0
7:53 pm 19:53 Clear 53 11.7 18 -7.8 25 25 NNW 5 7 29.93 1014 10 16.0934 0 0
8:53 pm 20:53 Clear 51 10.6 17 -8.3 26 26 NNW 9 15 29.92 1013 10 16.0934 0 0
9:53 pm 21:53 Clear 49 9.4 17 -8.3 28 28 W 13 20 29.91 1013 10 16.0934 0 0
10:53 pm 22:53 Clear 48 8.9 16 -8.9 28 28 NW 9 15 29.91 1013 10 16.0934 0 0
11:53 pm 23:53 Clear 48 8.9 14 -10 25 25 W 7 11 29.9 1013 10 16.0934 0 0

Powered by AerisWeather